Hourly Weather Aljojuca

Today, 24 November, Tuesday

Time Temperature Precipitation Wind Pressure Humidity
00:00 +7°C° 0 mm 0 mps 559 mmHg 89%
01:00 +6°C° 0 mm 0 mps 559 mmHg 87%
02:00 +6°C° 0 mm 0 mps 559 mmHg 86%
03:00 +6°C° 0 mm 0 mps 558 mmHg 84%
04:00 +6°C° 0 mm 0 mps 558 mmHg 82%
05:00 +6°C° 0 mm 0 mps 558 mmHg 80%
06:00 +8°C° 0 mm 0 mps 560 mmHg 69%
07:00 +11°C° 0 mm 0 mps 562 mmHg 58%
08:00 +13°C° 0 mm 0 mps 563 mmHg 47%
09:00 +16°C° 0 mm 1 mps 564 mmHg 42%
10:00 +19°C° 0 mm 1 mps 564 mmHg 37%
11:00 +20°C° 0 mm 1 mps 565 mmHg 32%
12:00 +21°C° 0 mm 1 mps 564 mmHg 31%
13:00 +21°C° 0 mm 1 mps 564 mmHg 30%
14:00 +21°C° 0 mm 2 mps 564 mmHg 29%
15:00 +20°C° 0 mm 1 mps 563 mmHg 38%
16:00 +18°C° 0 mm 1 mps 562 mmHg 48%
17:00 +15°C° 0 mm 1 mps 561 mmHg 57%
18:00 +14°C° 0 mm 1 mps 561 mmHg 60%
19:00 +12°C° 0 mm 0 mps 561 mmHg 63%
20:00 +11°C° 0 mm 0 mps 561 mmHg 66%
21:00 +11°C° 0 mm 0 mps 561 mmHg 66%
22:00 +10°C° 0 mm 0 mps 560 mmHg 66%
23:00 +10°C° 0 mm 0 mps 560 mmHg 66%

Tomorrow, 25 November, Wednesday

Time Temperature Precipitation Wind Pressure Humidity
00:00 +10°C° 0 mm 0 mps 560 mmHg 67%
01:00 +10°C° 0 mm 1 mps 559 mmHg 67%
02:00 +10°C° 0 mm 1 mps 559 mmHg 68%
03:00 +10°C° 0 mm 1 mps 559 mmHg 66%
04:00 +10°C° 0 mm 1 mps 559 mmHg 64%
05:00 +10°C° 0 mm 1 mps 559 mmHg 63%
06:00 +12°C° 0 mm 1 mps 561 mmHg 53%
07:00 +14°C° 0 mm 2 mps 562 mmHg 43%
08:00 +17°C° 0 mm 2 mps 564 mmHg 33%
09:00 +18°C° 0 mm 2 mps 565 mmHg 31%
10:00 +20°C° 0 mm 3 mps 565 mmHg 29%
11:00 +21°C° 0 mm 3 mps 566 mmHg 26%
12:00 +21°C° 0 mm 3 mps 565 mmHg 28%
13:00 +22°C° 0 mm 3 mps 565 mmHg 29%
14:00 +22°C° 0 mm 4 mps 564 mmHg 30%
15:00 +20°C° 0 mm 3 mps 563 mmHg 38%
16:00 +17°C° 0 mm 3 mps 562 mmHg 46%
17:00 +14°C° 0 mm 3 mps 562 mmHg 54%
18:00 +14°C° 0 mm 2 mps 562 mmHg 55%
19:00 +14°C° 0 mm 2 mps 562 mmHg 56%
20:00 +13°C° 0 mm 2 mps 562 mmHg 57%
21:00 +12°C° 0 mm 1 mps 562 mmHg 55%
22:00 +12°C° 0 mm 1 mps 561 mmHg 53%
23:00 +11°C° 0 mm 1 mps 561 mmHg 51%

Day after tomorrow, 26 November, Thursday

Time Temperature Precipitation Wind Pressure Humidity
00:00 +11°C° 0 mm 1 mps 560 mmHg 50%
01:00 +10°C° 0 mm 1 mps 560 mmHg 50%
02:00 +10°C° 0 mm 1 mps 560 mmHg 49%
03:00 +9°C° 0 mm 1 mps 559 mmHg 49%
04:00 +9°C° 0 mm 1 mps 559 mmHg 48%
05:00 +9°C° 0 mm 1 mps 559 mmHg 48%
06:00 +11°C° 0 mm 1 mps 561 mmHg 44%
07:00 +13°C° 0 mm 1 mps 562 mmHg 39%
08:00 +16°C° 0 mm 1 mps 564 mmHg 35%
09:00 +18°C° 0 mm 1 mps 564 mmHg 33%
10:00 +20°C° 0 mm 1 mps 564 mmHg 31%
11:00 +21°C° 0 mm 1 mps 565 mmHg 29%
12:00 +20°C° 0 mm 2 mps 564 mmHg 30%
13:00 +21°C° 0 mm 2 mps 564 mmHg 30%
14:00 +21°C° 0 mm 2 mps 563 mmHg 31%
15:00 +19°C° 0 mm 2 mps 562 mmHg 42%
16:00 +17°C° 0 mm 2 mps 561 mmHg 54%
17:00 +15°C° 0 mm 1 mps 560 mmHg 65%
18:00 +14°C° 0 mm 1 mps 561 mmHg 66%
19:00 +13°C° 0 mm 1 mps 561 mmHg 67%
20:00 +13°C° 0 mm 1 mps 561 mmHg 68%
21:00 +12°C° 0 mm 1 mps 560 mmHg 66%
22:00 +10°C° 0 mm 0 mps 560 mmHg 63%
23:00 +10°C° 0 mm 0 mps 560 mmHg 60%

27 November, Friday

Time Temperature Precipitation Wind Pressure Humidity
00:00 +10°C° 0 mm 0 mps 559 mmHg 59%
01:00 +9°C° 0 mm 0 mps 559 mmHg 58%
02:00 +9°C° 0 mm 0 mps 558 mmHg 56%
03:00 +9°C° 0 mm 0 mps 558 mmHg 56%
04:00 +8°C° 0 mm 0 mps 558 mmHg 56%
05:00 +8°C° 0 mm 0 mps 558 mmHg 55%
06:00 +11°C° 0 mm 0 mps 560 mmHg 48%
07:00 +13°C° 0 mm 0 mps 561 mmHg 41%
08:00 +15°C° 0 mm 0 mps 563 mmHg 34%
09:00 +19°C° 0 mm 1 mps 563 mmHg 31%
10:00 +21°C° 0 mm 1 mps 564 mmHg 27%
11:00 +22°C° 0 mm 1 mps 564 mmHg 24%
12:00 +21°C° 0 mm 2 mps 564 mmHg 24%
13:00 +23°C° 0 mm 2 mps 563 mmHg 25%
14:00 +23°C° 0 mm 2 mps 563 mmHg 25%
15:00 +20°C° 0 mm 2 mps 562 mmHg 35%
16:00 +17°C° 0 mm 2 mps 561 mmHg 46%
17:00 +15°C° 0 mm 2 mps 560 mmHg 56%
18:00 +14°C° 0 mm 1 mps 560 mmHg 57%
19:00 +13°C° 0 mm 1 mps 560 mmHg 58%
20:00 +12°C° 0 mm 0 mps 560 mmHg 58%
21:00 +11°C° 0 mm 0 mps 560 mmHg 58%
22:00 +11°C° 0 mm 0 mps 559 mmHg 57%
23:00 +10°C° 0 mm 0 mps 559 mmHg 56%

28 November, Saturday

Time Temperature Precipitation Wind Pressure Humidity
00:00 +11°C° 0 mm 1 mps 559 mmHg 57%
01:00 +11°C° 0 mm 1 mps 558 mmHg 58%
02:00 +10°C° 0 mm 1 mps 558 mmHg 59%
03:00 +10°C° 0 mm 1 mps 558 mmHg 60%
04:00 +10°C° 0 mm 1 mps 558 mmHg 61%
05:00 +9°C° 0 mm 1 mps 558 mmHg 62%
06:00 +12°C° 0 mm 1 mps 560 mmHg 54%
07:00 +14°C° 0 mm 1 mps 561 mmHg 45%
08:00 +16°C° 0 mm 1 mps 563 mmHg 37%
09:00 +19°C° 0 mm 1 mps 563 mmHg 34%
10:00 +19°C° 0 mm 2 mps 564 mmHg 31%
11:00 +20°C° 0 mm 2 mps 564 mmHg 29%
12:00 +20°C° 0 mm 3 mps 564 mmHg 33%
13:00 +20°C° 0 mm 3 mps 563 mmHg 38%
14:00 +19°C° 0 mm 4 mps 562 mmHg 43%
15:00 +17°C° 0 mm 3 mps 562 mmHg 53%
16:00 +14°C° 0 mm 3 mps 561 mmHg 63%
17:00 +14°C° 0 mm 2 mps 560 mmHg 73%
18:00 +13°C° 0 mm 2 mps 560 mmHg 76%
19:00 +12°C° 0 mm 2 mps 561 mmHg 79%
20:00 +10°C° 0 mm 2 mps 561 mmHg 82%
21:00 +11°C° 0 mm 1 mps 561 mmHg 83%
22:00 +10°C° 0 mm 1 mps 560 mmHg 83%
23:00 +10°C° 0 mm 1 mps 560 mmHg 83%

29 November, Sunday

Time Temperature Precipitation Wind Pressure Humidity
00:00 +9°C° 0 mm 1 mps 560 mmHg 83%
01:00 +9°C° 0 mm 1 mps 559 mmHg 84%
02:00 +8°C° 0 mm 1 mps 559 mmHg 84%
03:00 +8°C° 0 mm 1 mps 559 mmHg 84%
04:00 +7°C° 0 mm 0 mps 558 mmHg 85%
05:00 +7°C° 0 mm 0 mps 558 mmHg 85%
06:00 +10°C° 0 mm 1 mps 560 mmHg 77%
07:00 +11°C° 0 mm 1 mps 561 mmHg 69%
08:00 +13°C° 0 mm 1 mps 562 mmHg 61%
09:00 +15°C° 0 mm 1 mps 563 mmHg 57%
10:00 +16°C° 0 mm 2 mps 564 mmHg 53%
11:00 +18°C° 0 mm 3 mps 564 mmHg 49%
12:00 +18°C° 0 mm 3 mps 564 mmHg 50%
13:00 +18°C° 0 mm 3 mps 563 mmHg 50%
14:00 +18°C° 0 mm 4 mps 563 mmHg 51%
15:00 +17°C° 0 mm 3 mps 563 mmHg 59%
16:00 +14°C° 0 mm 3 mps 562 mmHg 67%
17:00 +14°C° 0 mm 2 mps 562 mmHg 75%
18:00 +13°C° 0 mm 2 mps 562 mmHg 79%
19:00 +12°C° 0 mm 2 mps 562 mmHg 84%
20:00 +11°C° 0 mm 1 mps 562 mmHg 88%
21:00 +11°C° 0 mm 1 mps 562 mmHg 89%
22:00 +11°C° 0 mm 1 mps 562 mmHg 90%
23:00 +11°C° 0 mm 1 mps 562 mmHg 90%
Show more